Keystone Heights, FL

11:08 PM EDT on August 31, 2016 (GMT -0400)
Keystone Airpark, Keystone He

Weather History for K42J - December, 2013

Change the Weather History Date:

Friday, December 6, 2013

  Actual Average (KGNV) Record (KGNV)
Temperature  
Mean Temperature 71 °F 58 °F  
Max Temperature 82 °F 70 °F 84 °F (2013)
Min Temperature 60 °F 46 °F 27 °F (2000)
Degree Days  
Heating Degree Days 0 8  
Month to date heating degree days 45  
Since 1 July heating degree days 206  
Cooling Degree Days 6 1  
Month to date cooling degree days 6  
Year to date cooling degree days 2622  
Growing Degree Days 21 (Base 50)    
Moisture  
Dew Point 65 °F    
Average Humidity 85    
Maximum Humidity 100    
Minimum Humidity 54    
Precipitation  
Precipitation 0.00 in 0.08 in 1.05 in (1979)
Month to date precipitation 0.45  
Year to date precipitation 45.38  
Snow  
Snow 0.00 in 0.00 in 0.00 in ()
Month to date snowfall 0.0  
Since 1 July snowfall 0.0  
Snow Depth -    
Sea Level Pressure  
Sea Level Pressure 30.15 in    
Wind  
Wind Speed 4 mph (South)    
Max Wind Speed 13 mph    
Max Gust Speed 18 mph    
Visibility 8 miles    
Events      
T = Trace of Precipitation, MM = Missing Value Source: NWS Daily Summary

Daily Weather History Graph

Daily Weather History Graph

Search for Another Location

Airport or City:

Trip Planner

Search our weather history database for the weather conditions in past years. The results will help you decide how hot, cold, wet, or windy it might be!

Date:

Astronomy

Dec. 06, 2013 Rise Set
Actual Time 7:10 AM EST 5:28 PM EST
Civil Twilight 6:44 AM EST 5:54 PM EST
Nautical Twilight 6:14 AM EST 6:24 PM EST
Astronomical Twilight 5:45 AM EST 6:53 PM EST
Moon 10:24 AM EST (12/6) 9:47 PM EST (12/6)
Length of Visible Light 11h 10m
Length of Day
10h 18m
Waxing Crescent, 19% of the Moon is Illuminated
Dec 6
Waxing Crescent
Dec 9
First Quarter
Dec 17
Full
Dec 25
Last Quarter
Jan 1
New

Hourly Weather History & Observations

Time (EST) Temp. Heat Index Dew Point Humidity Pressure Visibility Wind Dir Wind Speed Gust Speed Precip Events Conditions
12:15 AM 66.2 °F - 64.4 °F 94% 30.15 in 9.0 mi Calm Calm - N/A   Clear
12:35 AM 64.4 °F - 64.4 °F 100% 30.15 in 8.0 mi SE 3.5 mph - N/A   Clear
12:55 AM 64.4 °F - 64.4 °F 100% 30.14 in 7.0 mi SE 3.5 mph - N/A   Clear
1:15 AM 64.4 °F - 64.4 °F 100% 30.14 in 7.0 mi SE 3.5 mph - N/A   Clear
1:35 AM 64.4 °F - 64.4 °F 100% 30.14 in 6.0 mi Calm Calm - N/A   Clear
1:55 AM 64.4 °F - 64.4 °F 100% 30.13 in 5.0 mi Calm Calm - N/A   Clear
2:15 AM 64.4 °F - 64.4 °F 100% 30.13 in 5.0 mi SE 3.5 mph - N/A   Clear
2:35 AM 64.4 °F - 64.4 °F 100% 30.13 in 5.0 mi SSE 4.6 mph - N/A   Clear
2:55 AM 64.4 °F - 64.4 °F 100% 30.13 in 5.0 mi Calm Calm - N/A   Clear
3:15 AM 64.4 °F - 64.4 °F 100% 30.14 in 7.0 mi Calm Calm - N/A   Clear
3:35 AM 62.6 °F - 62.6 °F 100% 30.14 in 2.5 mi Calm Calm - N/A   Clear
3:55 AM 64.4 °F - 64.4 °F 100% 30.15 in 3.0 mi Calm Calm - N/A   Clear
4:15 AM 60.8 °F - 60.8 °F 100% 30.15 in 1.8 mi Calm Calm - N/A   Clear
4:35 AM 60.8 °F - 60.8 °F 100% 30.15 in 4.0 mi SE 4.6 mph - N/A   Mostly Cloudy
4:55 AM 64.4 °F - 64.4 °F 100% 30.15 in 4.0 mi SE 4.6 mph - N/A   Partly Cloudy
5:15 AM 64.4 °F - 64.4 °F 100% 30.16 in 5.0 mi SE 3.5 mph - N/A   Clear
5:35 AM 62.6 °F - 62.6 °F 100% 30.16 in 2.0 mi Calm Calm - N/A   Clear
5:55 AM 60.8 °F - 60.8 °F 100% 30.17 in 2.5 mi Calm Calm - N/A   Clear
6:15 AM 62.6 °F - 62.6 °F 100% 30.16 in 3.0 mi Calm Calm - N/A   Clear
6:35 AM 64.4 °F - 64.4 °F 100% 30.16 in 3.0 mi SSE 4.6 mph - N/A   Clear
6:55 AM 64.4 °F - 64.4 °F 100% 30.16 in 1.8 mi SSE 5.8 mph - N/A   Clear
7:15 AM 64.4 °F - 64.4 °F 100% 30.16 in 1.5 mi SSE 5.8 mph - N/A   Mostly Cloudy
7:35 AM 64.4 °F - 64.4 °F 100% 30.16 in 3.0 mi SSE 6.9 mph - N/A   Partly Cloudy
7:55 AM 66.2 °F - 66.2 °F 100% 30.16 in 3.0 mi SSE 5.8 mph - N/A   Partly Cloudy
8:15 AM 66.2 °F - 66.2 °F 100% 30.16 in 5.0 mi SSE 4.6 mph - N/A   Clear
8:35 AM 68.0 °F - 68.0 °F 100% 30.17 in 6.0 mi SSE 4.6 mph - N/A   Clear
8:55 AM 69.8 °F - 69.8 °F 100% 30.17 in 10.0 mi SSE 5.8 mph - N/A   Clear
9:15 AM 69.8 °F - 69.8 °F 100% 30.17 in 9.0 mi South 8.1 mph - N/A   Clear
9:35 AM 73.4 °F - 69.8 °F 88% 30.18 in 10.0 mi SSE 8.1 mph - N/A   Clear
9:55 AM 73.4 °F - 69.8 °F 88% 30.18 in 10.0 mi South 9.2 mph - N/A   Clear
10:15 AM 75.2 °F - 69.8 °F 83% 30.18 in 10.0 mi South 8.1 mph - N/A   Clear
10:35 AM 78.8 °F - 66.2 °F 65% 30.18 in 10.0 mi SSW 10.4 mph - N/A   Clear
10:55 AM 78.8 °F - 66.2 °F 65% 30.18 in 10.0 mi SSW 12.7 mph - N/A   Clear
11:15 AM 78.8 °F - 64.4 °F 61% 30.17 in 10.0 mi South 11.5 mph - N/A   Clear
11:35 AM 80.6 °F 82.3 °F 64.4 °F 58% 30.17 in 10.0 mi SSW 10.4 mph 18.4 mph N/A   Clear
11:55 AM 80.6 °F 82.3 °F 64.4 °F 58% 30.16 in 10.0 mi SSW 9.2 mph - N/A   Clear
12:15 PM 80.6 °F 82.3 °F 64.4 °F 58% 30.15 in 10.0 mi South 10.4 mph - N/A   Partly Cloudy
12:35 PM 82.4 °F 83.9 °F 64.4 °F 54% 30.15 in 10.0 mi SSW 11.5 mph - N/A   Scattered Clouds
12:55 PM 80.6 °F 82.3 °F 64.4 °F 58% 30.14 in 10.0 mi SW 11.5 mph - N/A   Mostly Cloudy
1:15 PM 80.6 °F 82.3 °F 64.4 °F 58% 30.14 in 10.0 mi SW 11.5 mph - N/A   Mostly Cloudy
1:35 PM 80.6 °F 82.3 °F 64.4 °F 58% 30.13 in 10.0 mi South 6.9 mph - N/A   Mostly Cloudy
1:55 PM 82.4 °F 83.9 °F 64.4 °F 54% 30.13 in 10.0 mi SSE 9.2 mph - N/A   Scattered Clouds
2:15 PM 82.4 °F 83.9 °F 64.4 °F 54% 30.12 in 10.0 mi SSW 9.2 mph - N/A   Partly Cloudy
2:35 PM 82.4 °F 83.9 °F 64.4 °F 54% 30.12 in 10.0 mi SSW 10.4 mph - N/A   Clear
2:55 PM 80.6 °F 82.3 °F 64.4 °F 58% 30.12 in 10.0 mi SSW 6.9 mph - N/A   Clear
3:15 PM 82.4 °F 83.9 °F 64.4 °F 54% 30.12 in 10.0 mi SSW 6.9 mph - N/A   Partly Cloudy
3:35 PM 80.6 °F 82.3 °F 64.4 °F 58% 30.12 in 10.0 mi SSW 6.9 mph - N/A   Clear
3:55 PM 80.6 °F 82.3 °F 64.4 °F 58% 30.12 in 10.0 mi SW 5.8 mph - N/A   Clear
4:15 PM 80.6 °F 82.3 °F 64.4 °F 58% 30.13 in 10.0 mi SSW 3.5 mph - N/A   Clear
4:35 PM 80.6 °F 82.3 °F 64.4 °F 58% 30.13 in 10.0 mi SSW 3.5 mph - N/A   Clear
4:55 PM 78.8 °F - 64.4 °F 61% 30.13 in 10.0 mi WSW 3.5 mph - N/A   Partly Cloudy
5:15 PM 77.0 °F - 66.2 °F 69% 30.13 in 10.0 mi SW 3.5 mph - N/A   Mostly Cloudy
5:35 PM 75.2 °F - 66.2 °F 73% 30.14 in 10.0 mi SW 3.5 mph - N/A   Mostly Cloudy
5:55 PM 73.4 °F - 66.2 °F 78% 30.14 in 10.0 mi Calm Calm - N/A   Scattered Clouds
6:55 PM 71.6 °F - 66.2 °F 83% 30.15 in 10.0 mi WSW 3.5 mph - N/A   Partly Cloudy
7:15 PM 69.8 °F - 66.2 °F 88% 30.16 in 10.0 mi West 3.5 mph - N/A   Clear
7:35 PM 71.6 °F - 66.2 °F 83% 30.16 in 10.0 mi West 4.6 mph - N/A   Clear
7:55 PM 71.6 °F - 66.2 °F 83% 30.16 in 10.0 mi West 3.5 mph - N/A   Clear
8:15 PM 69.8 °F - 66.2 °F 88% 30.17 in 10.0 mi WSW 4.6 mph - N/A   Clear
8:35 PM 69.8 °F - 66.2 °F 88% 30.17 in 10.0 mi WSW 4.6 mph - N/A   Clear
8:55 PM 69.8 °F - 66.2 °F 88% 30.17 in 10.0 mi Calm Calm - N/A   Clear
9:15 PM 66.2 °F - 66.2 °F 100% 30.17 in 10.0 mi SW 3.5 mph - N/A   Clear
9:35 PM 66.2 °F - 66.2 °F 100% 30.17 in 10.0 mi Calm Calm - N/A   Clear
9:55 PM 66.2 °F - 64.4 °F 94% 30.18 in 10.0 mi Calm Calm - N/A   Clear
10:15 PM 66.2 °F - 66.2 °F 100% 30.18 in 10.0 mi Calm Calm - N/A   Clear
10:35 PM 64.4 °F - 64.4 °F 100% 30.19 in 8.0 mi Calm Calm - N/A   Clear
10:55 PM 64.4 °F - 64.4 °F 100% 30.19 in 5.0 mi Calm Calm - N/A   Clear
11:15 PM 64.4 °F - 64.4 °F 100% 30.19 in 9.0 mi Calm Calm - N/A   Clear
11:35 PM 62.6 °F - 62.6 °F 100% 30.19 in 9.0 mi Calm Calm - N/A   Mostly Cloudy
11:55 PM 64.4 °F - 62.6 °F 94% 30.19 in 7.0 mi Calm Calm - N/A   Mostly Cloudy